SL-16 DEB

Satellite information

Favourite Embed

Satellite Type and Status

DEBRISIN ORBIT

Key statistics

Satellite SL-16 DEB at a glance.

Uptime

11883

Days in orbit

Revolutions

≈ 14.1

Per day

Orbit

LEO

Low Earth Orbit

Inclination

71.0

Latest

Satellite identification and parameters

Extended collection of information and parameters for SL-16 DEB.

Object identification

Identified? True

Debris? True

Object name: SL-16 DEB

International designator: 1992-093DN

Object number (NORAD): 22421

Object ID (CCSDS): 22421

Country: COMMONWEALTH OF INDEPENDENT STATES (CIS)

Current information (Y/N): Y

RCS size: SMALL

Orbital parameters

Period: 102.034 minutes

Inclination: 71.0322 deg

SMA: 7233.08 km

Apoapsis: 921.784 km

Periapsis: 788.107 km

RAAN: 123.1537 deg

Eccentricy: 0.0092407

Argument of periapsis: 111.2796 deg

Mean anomaly: 313.9266 deg

Mean motion: 14.11295046 rev/day

Mean motion (dot): 0.00000252 rev/day2

B* drag term: 0.00015838 1/REarth

Two-line elements (TLE)

Creation date: July 8, 2025, 2:27 a.m.

Reference frame: TEME

Reference center: EARTH

Epoch: July 7, 2025, 8:19 p.m. UTC

TLE line 0: 0 SL-16 DEB

TLE line 1: 1 22421U 92093DN 25188.84695201 .00000252 00000-0 15838-3 0 9990

TLE line 2: 2 22421 71.0322 123.1537 0092407 111.2796 313.9266 14.11295046668529

Live tracking on map

Real-time ground track for satellite SL-16 DEB.

In-orbit conjunctions

A list of the most updated potential collisions computed for object SL-16 DEB.

Target Orbit TCA Probability of collision Miss distance Type
NOAA 16 DEB SSO 2024-09-22 13:30:34 0.0001729128 268.0 (m) DEBRIS
COSMOS 1275 DEB LEO 2024-08-04 12:21:53 0.0001139624 308.0 (m) DEBRIS

Associated space launch

Second generation ELING satellite

SL-16 DEB was lifted into orbit during the mission ‘Zenit-2 | Tselina-2 12’, on board a Zenit-2 space rocket.

The launch took place on Dec. 25, 1992, 5:56 a.m. from 45/1.

For more information about the launch, click the button.

Launch to space Zenit-2 | Tselina-2 12
Zenit-2 | Tselina-2 12

Agency: N/A

Status: Launch Successful

Launch date: Dec. 25, 1992, 5:56 a.m. UTC

Rocket: Zenit-2

Launch pad: 45/1

Location: Baikonur Cosmodrome, Republic of Kazakhstan

...

Latest news about this satellite

There are no fresh news available about this satellite. Check back as we update our databases every day.


Newsletter sign-up

Weekly statistics, charts and insights to help you stay on top of the space industry.